Wind_Speed
26 27 29 30 31 32 34 35 35 36 38 39 39 41 42 43 44 45 46 47 47 47 48 49 49 49 50 50 49 50 50 51 51 51 52 53 55 55 55 55 55 55 55
28 28 29 30 31 33 34 36 37 37 38 39 39 40 42 42 42 44 45 46 46 48 48 49 49 50 50 50 50 50 51 52 53 53 53 54 55 55 55 55 55 55 55
29 30 31 32 32 33 35 36 37 37 37 38 38 39 40 41 42 44 45 45 46 46 47 48 49 49 49 50 51 51 52 53 54 54 55 55 55 54 55 55 54 54 56
31 31 32 33 33 33 34 35 36 36 37 38 39 40 40 41 42 43 45 45 46 46 47 48 48 48 49 50 51 52 53 53 54 54 54 54 55 54 54 54 55 56 56
32 33 33 34 34 35 35 35 36 37 38 39 40 41 41 42 43 44 44 45 45 45 46 48 48 48 49 49 50 51 52 53 54 54 54 54 54 54 53 54 54 54 55
33 34 34 35 36 36 36 36 37 37 38 39 39 41 41 41 41 42 43 44 44 45 45 46 47 48 49 49 50 51 52 53 53 53 53 53 53 53 53 53 53 53 53
33 34 34 35 36 36 36 37 38 38 39 40 41 41 41 42 42 43 43 45 45 46 45 45 46 47 48 49 49 50 50 51 52 52 52 52 53 53 53 53 53 53 52
32 33 35 35 35 35 36 37 37 38 39 40 41 41 41 41 42 42 43 44 45 45 46 46 47 47 48 48 49 49 49 50 51 51 51 52 52 52 52 51 51 51 51
33 34 35 35 36 36 37 37 38 39 40 40 41 42 42 42 42 42 43 44 44 45 45 46 46 47 47 48 49 49 50 51 51 51 51 51 51 51 51 50 50 51 50
34 35 35 36 37 38 38 39 39 40 40 40 41 42 42 42 42 43 43 44 44 45 45 45 46 46 47 48 49 49 50 50 51 51 51 51 51 50 50 50 51 51 51
35 36 37 37 38 39 39 39 39 40 40 40 41 41 42 42 43 43 43 44 44 44 45 45 45 46 47 48 49 49 50 50 50 50 51 51 51 50 50 51 51 50 50
36 37 38 39 39 40 40 40 40 40 40 41 41 41 42 42 42 43 43 43 44 44 45 45 45 46 46 47 48 49 50 50 50 50 50 50 50 50 50 50 50 49 49
36 36 37 38 39 40 41 40 40 41 41 41 41 42 42 42 42 43 43 43 43 44 44 44 45 46 47 48 49 49 49 49 49 48 48 48 49 49 48 48 47 47 47
38 38 38 38 39 40 41 41 41 41 42 42 42 42 42 42 43 43 43 43 43 43 43 44 45 46 47 48 48 48 48 47 47 47 47 47 47 46 46 46 46 46 46
39 39 39 40 40 41 41 41 41 41 42 43 43 43 43 42 42 42 43 43 43 43 44 44 45 45 46 46 46 45 45 45 45 45 44 44 44 43 43 43 44 44 45
40 40 40 40 41 41 41 40 40 41 42 43 43 43 43 42 42 42 42 43 44 44 44 44 45 45 45 45 45 44 44 43 43 42 42 42 42 42 42 43 43 44 44
40 40 40 40 40 40 40 41 40 40 41 41 42 42 42 42 42 42 43 44 44 44 45 45 45 45 45 44 43 42 42 41 41 41 41 41 41 42 42 43 43 43 43
40 40 40 40 40 40 40 40 41 41 40 40 40 41 41 42 42 42 43 44 44 45 45 45 45 44 44 43 41 41 40 40 40 40 40 41 41 41 42 42 42 42 42
41 41 41 40 41 41 41 41 41 40 40 40 40 40 40 41 41 42 42 42 43 43 44 44 44 43 42 41 40 39 39 39 39 39 40 40 40 41 41 41 41 40 40
41 41 41 41 41 41 41 40 40 40 40 40 40 40 39 40 40 40 40 41 42 42 42 42 41 40 39 38 38 38 38 38 38 38 38 39 39 40 40 40 39 38 37
41 41 41 41 41 40 40 39 39 39 39 39 39 39 39 38 38 39 39 40 40 40 40 39 37 37 36 35 35 35 36 36 37 37 38 38 38 38 38 37 36 35 34
41 41 41 41 40 40 39 39 39 38 38 38 37 37 37 37 37 38 38 39 39 38 37 36 35 34 33 33 33 34 35 35 36 36 37 37 37 37 36 35 35 34 34
41 41 40 40 39 39 38 37 37 37 36 36 36 36 36 36 36 37 37 37 36 35 34 33 33 32 32 33 33 34 35 35 36 36 37 37 36 36 36 35 34 33 33
40 39 39 38 38 37 37 36 36 35 35 35 35 35 35 35 36 36 36 35 34 33 32 32 32 32 32 33 33 34 35 35 36 36 36 35 35 35 34 32 31 31 29
37 37 36 36 36 36 35 35 34 34 34 34 34 34 35 35 35 34 34 34 32 31 31 31 31 31 32 32 33 33 33 34 34 34 33 33 32 31 30 29 28 27 26
35 34 34 34 33 33 33 33 32 32 32 32 33 33 34 34 33 33 33 32 31 31 30 30 30 30 30 31 31 32 32 32 31 30 30 29 29 27 26 25 24 24 23
Wind_Direction
260 262 262 260 260 260 259 260 261 262 263 263 264 266 268 268 268 267 267 267 268 269 270 270 272 274 275 276 276 277 277 278 279 279 279 279 280 281 281 282 282 282 282
263 264 264 264 264 265 264 264 264 264 264 266 267 267 269 269 268 268 269 270 271 271 272 272 273 274 275 276 277 277 278 278 279 279 280 280 282 282 283 283 283 283 282
266 267 268 267 267 268 269 268 267 266 265 267 267 268 269 269 270 270 271 272 273 273 272 273 274 275 276 277 277 278 278 279 280 280 281 282 282 283 283 283 283 283 283
269 270 271 270 270 270 269 269 269 268 268 268 269 271 272 273 273 272 273 274 274 274 274 275 275 276 277 278 279 279 279 280 280 281 282 282 283 283 283 283 283 283 283
271 272 272 271 272 271 269 270 269 270 269 270 272 273 275 275 275 275 275 276 276 275 276 276 276 277 278 278 279 279 280 280 281 281 282 282 283 284 284 284 283 283 283
272 272 272 271 273 271 271 271 270 271 271 271 274 275 277 277 277 278 277 276 277 278 277 277 277 278 278 279 279 280 281 281 281 282 282 283 283 283 284 283 283 284 284
274 273 272 272 272 273 273 272 271 272 273 274 276 278 279 278 278 278 278 278 278 279 279 278 279 279 279 279 280 281 281 282 283 283 283 283 283 283 284 284 284 284 284
277 276 275 274 273 274 275 274 273 274 276 277 278 279 279 280 279 278 279 279 279 279 279 279 280 280 280 280 281 282 283 284 284 284 284 284 284 284 284 285 285 284 284
278 277 276 275 274 275 276 276 276 277 278 278 278 279 279 280 280 279 279 279 279 280 280 280 279 280 280 281 282 283 283 284 284 284 285 285 285 285 285 285 285 285 285
280 279 278 277 275 276 277 277 278 278 279 279 279 279 279 280 280 280 280 280 280 280 280 280 281 281 281 282 283 283 284 284 284 284 285 285 284 284 285 285 285 285 285
282 280 279 278 278 278 278 279 279 278 279 279 279 279 279 280 280 281 282 282 281 281 281 281 282 282 282 283 284 284 284 284 284 284 284 284 284 284 285 285 285 285 286
283 281 280 279 279 279 279 279 279 278 279 280 281 281 281 281 282 283 283 283 283 283 283 282 282 283 283 284 285 285 285 284 284 285 285 284 284 285 285 285 285 285 286
286 283 281 280 280 280 280 280 280 280 281 281 282 282 282 282 282 283 283 283 284 284 284 283 283 284 285 285 286 286 285 285 284 285 285 284 284 285 285 284 285 286 287
287 285 283 282 281 281 281 281 281 280 282 282 282 282 282 283 283 283 283 283 283 284 284 284 285 285 287 287 287 286 286 285 285 285 284 285 285 285 285 284 285 287 288
286 285 283 283 282 283 283 282 282 281 282 282 282 282 282 282 282 283 283 283 283 284 284 285 286 287 288 288 287 287 286 286 285 285 285 285 285 285 285 286 287 288 289
285 284 283 283 283 283 284 284 282 282 282 283 282 282 281 281 281 282 282 283 284 284 285 285 286 287 287 288 287 286 285 285 285 285 285 285 285 285 286 287 288 289 289
286 285 284 284 284 284 284 284 283 283 283 284 283 282 281 281 281 281 282 283 283 284 285 286 286 286 287 287 286 285 285 284 284 285 285 285 286 286 287 288 289 289 289
285 285 285 284 284 284 284 285 284 283 283 283 283 283 282 282 282 282 282 283 284 285 286 286 287 286 286 285 284 284 284 284 285 286 286 286 287 287 288 289 289 290 289
285 285 285 284 285 285 284 284 284 284 283 283 284 283 283 282 283 284 284 285 285 286 287 286 286 286 285 284 284 284 284 284 285 286 287 288 288 288 289 290 290 290 290
285 285 285 284 284 284 285 284 283 284 284 284 284 283 283 283 284 285 285 285 286 287 288 287 286 284 283 283 283 284 284 285 286 287 288 288 288 289 289 290 290 290 289
286 285 285 284 284 283 283 284 284 284 284 284 284 284 284 284 284 285 285 286 287 288 288 287 285 284 283 283 283 284 285 286 287 288 289 290 290 290 290 289 289 289 290
287 286 285 284 283 282 282 283 283 284 284 284 284 284 285 285 285 286 287 287 288 287 286 286 285 284 283 283 284 285 286 287 288 289 291 292 292 291 291 289 289 289 290
287 286 285 284 283 282 282 282 282 283 284 284 284 284 285 286 286 287 288 288 288 287 285 285 286 285 284 284 286 287 288 288 289 290 291 292 293 292 291 289 288 289 290
287 287 286 284 283 282 281 281 281 282 283 284 285 285 285 285 287 287 288 288 288 286 285 284 285 285 285 285 286 286 287 289 290 291 291 291 292 292 290 288 287 288 288
288 287 286 285 283 282 281 281 281 281 283 284 285 285 286 286 287 288 288 288 287 286 285 284 285 284 285 286 287 288 289 290 291 291 291 291 292 292 290 288 287 287 287
288 287 286 285 283 282 281 281 281 282 283 284 285 285 286 287 287 287 287 287 286 285 284 284 284 284 285 287 288 289 291 291 292 292 292 293 292 291 289 288 288 287 287
Height
5684 5684 5685 5685 5686 5686 5687 5687 5687 5688 5688 5688 5688 5688 5688 5687 5687 5687 5687 5687 5686 5686 5685 5685 5684 5683 5682 5681 5679 5677 5676 5674 5672 5671 5668 5665 5663 5660 5658 5655 5652 5650 5647
5677 5677 5678 5678 5678 5678 5678 5678 5678 5677 5678 5678 5677 5677 5677 5676 5675 5675 5675 5674 5674 5674 5673 5673 5672 5670 5669 5668 5666 5664 5662 5660 5658 5657 5654 5651 5648 5646 5643 5640 5637 5634 5631
5670 5670 5670 5670 5670 5669 5669 5668 5668 5667 5667 5667 5667 5666 5665 5665 5664 5663 5663 5662 5661 5661 5660 5659 5658 5657 5656 5654 5652 5650 5648 5646 5643 5642 5640 5637 5634 5630 5627 5625 5622 5618 5615
5662 5662 5662 5661 5661 5660 5659 5658 5658 5657 5657 5656 5656 5655 5654 5653 5652 5651 5650 5649 5648 5648 5647 5646 5645 5643 5642 5641 5638 5636 5634 5632 5629 5627 5624 5622 5619 5615 5612 5609 5606 5603 5600
5654 5653 5653 5652 5651 5651 5650 5649 5647 5647 5646 5645 5645 5644 5642 5641 5640 5638 5638 5637 5636 5635 5633 5632 5631 5630 5628 5626 5624 5622 5620 5617 5614 5612 5609 5606 5603 5600 5597 5594 5590 5587 5584
5645 5644 5643 5643 5642 5641 5640 5639 5637 5636 5635 5634 5633 5632 5631 5629 5628 5626 5625 5624 5623 5621 5620 5619 5617 5616 5614 5612 5610 5608 5605 5602 5600 5597 5594 5591 5589 5585 5582 5578 5575 5572 5569
5635 5634 5634 5632 5631 5630 5629 5628 5627 5626 5625 5623 5622 5620 5619 5617 5616 5614 5613 5611 5610 5608 5606 5605 5604 5602 5600 5598 5596 5594 5591 5588 5585 5582 5580 5577 5574 5571 5568 5564 5560 5557 5554
5625 5624 5623 5622 5621 5620 5618 5617 5616 5615 5613 5612 5610 5608 5607 5605 5603 5602 5600 5599 5597 5595 5593 5592 5590 5589 5586 5585 5583 5580 5577 5574 5571 5568 5566 5563 5559 5555 5552 5549 5546 5543 5540
5615 5614 5612 5611 5610 5609 5608 5606 5605 5603 5602 5600 5599 5597 5595 5593 5591 5589 5588 5586 5584 5582 5580 5578 5576 5575 5573 5571 5569 5566 5564 5560 5557 5554 5551 5548 5544 5541 5538 5535 5532 5529 5526
5605 5603 5602 5600 5599 5598 5596 5595 5593 5592 5590 5589 5587 5585 5583 5581 5579 5577 5575 5573 5572 5570 5568 5565 5563 5561 5559 5556 5554 5552 5549 5546 5543 5540 5537 5534 5530 5527 5523 5520 5517 5514 5511
5594 5592 5591 5589 5588 5587 5585 5583 5582 5580 5579 5577 5576 5574 5572 5569 5567 5565 5563 5560 5558 5556 5554 5552 5550 5547 5545 5542 5540 5537 5534 5531 5529 5525 5522 5519 5516 5513 5509 5506 5503 5500 5496
5583 5581 5580 5578 5576 5575 5573 5572 5570 5568 5566 5565 5563 5561 5559 5557 5555 5552 5550 5548 5545 5543 5541 5539 5536 5534 5532 5529 5526 5523 5520 5517 5514 5511 5508 5505 5502 5499 5495 5492 5489 5485 5482
5572 5570 5568 5566 5565 5563 5562 5560 5558 5556 5554 5553 5551 5549 5547 5545 5542 5540 5537 5535 5532 5530 5528 5526 5523 5521 5518 5515 5512 5509 5506 5503 5500 5497 5494 5491 5488 5484 5481 5478 5475 5472 5469
5561 5559 5557 5555 5553 5551 5549 5548 5546 5544 5542 5540 5538 5536 5534 5532 5530 5527 5524 5522 5520 5518 5515 5513 5510 5507 5504 5501 5498 5495 5492 5489 5486 5483 5480 5477 5474 5471 5468 5465 5462 5459 5456
5550 5547 5545 5543 5541 5539 5537 5535 5533 5531 5528 5527 5525 5523 5521 5520 5517 5514 5512 5510 5507 5505 5502 5500 5497 5494 5491 5488 5485 5482 5479 5476 5473 5470 5467 5464 5461 5458 5455 5452 5449 5446 5443
5538 5535 5533 5531 5529 5526 5524 5522 5520 5518 5515 5513 5510 5509 5507 5506 5504 5501 5499 5497 5494 5492 5489 5487 5484 5481 5478 5475 5472 5469 5466 5463 5460 5457 5454 5451 5448 5446 5443 5440 5436 5433 5430
5525 5523 5520 5518 5516 5514 5511 5509 5507 5506 5503 5500 5497 5495 5494 5492 5490 5488 5486 5484 5481 5479 5476 5474 5471 5468 5465 5462 5459 5456 5453 5450 5447 5445 5442 5439 5436 5433 5430 5427 5424 5420 5417
5513 5510 5508 5506 5503 5501 5499 5497 5495 5493 5491 5488 5485 5483 5481 5479 5477 5475 5473 5471 5469 5466 5463 5460 5457 5454 5452 5449 5446 5443 5441 5438 5436 5433 5430 5427 5424 5421 5418 5415 5411 5408 5405
5500 5498 5495 5493 5491 5489 5487 5484 5482 5480 5478 5476 5473 5471 5468 5466 5464 5462 5460 5458 5456 5453 5450 5447 5444 5441 5439 5436 5434 5431 5429 5427 5424 5421 5418 5415 5412 5409 5406 5402 5399 5396 5392
5488 5485 5483 5481 5478 5476 5474 5472 5470 5468 5466 5463 5461 5459 5456 5455 5453 5450 5448 5445 5443 5440 5437 5434 5431 5428 5426 5424 5422 5420 5418 5415 5413 5410 5407 5403 5400 5397 5394 5390 5387 5384 5381
5475 5473 5470 5468 5466 5463 5461 5459 5457 5455 5453 5451 5449 5447 5445 5443 5441 5438 5436 5433 5430 5427 5424 5421 5419 5417 5415 5413 5411 5409 5407 5404 5402 5399 5395 5392 5389 5385 5382 5379 5376 5373 5370
5462 5460 5457 5455 5453 5451 5449 5447 5445 5443 5441 5439 5437 5435 5433 5431 5429 5427 5424 5421 5418 5415 5413 5410 5408 5406 5404 5403 5401 5398 5396 5393 5391 5388 5384 5381 5377 5374 5371 5368 5365 5363 5360
5449 5447 5444 5442 5440 5438 5437 5435 5433 5432 5430 5428 5426 5424 5422 5420 5418 5415 5413 5410 5407 5404 5402 5400 5398 5396 5394 5392 5390 5388 5386 5383 5380 5377 5374 5370 5367 5363 5360 5357 5355 5352 5350
5437 5435 5432 5430 5428 5427 5425 5423 5422 5420 5419 5417 5415 5413 5411 5409 5407 5404 5401 5399 5396 5394 5392 5390 5389 5387 5385 5382 5380 5377 5375 5372 5369 5366 5363 5359 5356 5353 5350 5347 5345 5342 5340
5425 5422 5420 5418 5417 5415 5413 5412 5411 5409 5408 5406 5404 5402 5400 5398 5396 5393 5391 5388 5386 5384 5382 5381 5379 5377 5374 5372 5370 5367 5364 5361 5358 5355 5352 5349 5346 5343 5340 5338 5336 5334 5332
5413 5411 5409 5407 5405 5404 5402 5401 5400 5398 5397 5395 5393 5391 5389 5387 5385 5383 5381 5379 5377 5375 5373 5371 5369 5367 5365 5362 5360 5357 5354 5351 5348 5345 5342 5340 5337 5334 5332 5330 5328 5326 5324